Find Starlink 38236

NORAD ID: 100312 Int'l Des: 2026-184 Owner: SPXS Country: US Constellation: starlink operational

Aktuelle Ansicht

3D-Globus wird geladen...

About Starlink 38236

Starlink 38236 (NORAD 100312) is a starlink constellation satellite launched Aug 12, 2026 by SPXS of US. with a mass of 575.00 kg.

Nächste Überflüge

Passes for default location (London). Set your location on the main map for personalized predictions.

Höhenverlauf

Loading altitude history...

Zweizeiliger Elementsatz

1 A0312U 26184M 26262.87415655 .00008758 00000-0 27327-3 0 9998
2 A0312 97.2847 127.9892 0001956 101.7150 258.4312 15.33446196 7261
Epoch: 19. Sept. 2026 • Age: 17 hours

Aktueller Status

Höhe 494.6 km
Apogäum / Perigäum N/A
Geschwindigkeit 7.62 km/s
Subsatellitenpunkt -78.11°S, 65.47°E
Startdatum 12. Aug. 2026
Alter 0.1 years
Typ internet

Technische Details

Klassifizierung Payload
Masse 575.00 kg
Trockenmasse 530.00 kg
Länge 0.30 m
Spannweite 29.00 m
Form ? Box + pan
Hersteller SPXS
Bus-Typ Starlink V2MO
Phasenstatus In Orbit
Besitzer/Staat SPXS/US

Most Searched